{"data":{"norad_id":52137,"epoch":"2026-09-19T15:37:55.270560Z","epoch_age_seconds":129396,"freshness":"FRESH","line1":"1 52137U 22029BB  26262.65133415  .00000815  00000+0  35267-4 0  9999","line2":"2 52137  53.1605 273.3331 0001202  79.0730 281.0408 15.34393798250285","mean_motion":15.34393798,"eccentricity":0.0001202,"inclination_deg":53.1605,"raan_deg":273.3331,"arg_perigee_deg":79.073,"mean_anomaly_deg":281.0408,"bstar":3.5267e-5,"rev_number":25028,"period_min":93.848137412766,"perigee_km":461.8994027076,"apogee_km":463.54394513281,"semimajor_km":6840.8586739202,"source":"CELESTRAK","updated_at":"2026-09-20T09:00:39.992512Z"}}